Regional Weather Roundup
Issued by NWS

Home | Current Version | Previous Version | Text Only | Print | Product List | Glossary Off
Versions: 1 2 3 4 5 6 7 8 9 10 11 12 13 14 15 16 17 18 19 20 21 22 23 24 25 26 27 28 29 30 31 32 33 34 35 36 37 38 39 40 41 42 43 44 45 46 47 48 49 50

000
ASUS43 KBIS 260210
RWRND

NORTH DAKOTA REGIONAL WEATHER ROUNDUP
NATIONAL WEATHER SERVICE BISMARCK ND
800 PM CST SUN FEB 25 2018

NOTE: "FAIR" INDICATES FEW OR NO CLOUDS BELOW 12,000 FEET WITH NO
SIGNIFICANT WEATHER AND/OR OBSTRUCTIONS TO VISIBILITY.


NDZ001>003-009>011-017-260300-
NORTHWEST NORTH DAKOTA

CITY           SKY/WX    TMP DP  RH WIND       PRES   REMARKS
WILLISTON      CLEAR     20  14  77 SW7       29.61R WCI  11
MINOT          CLOUDY    25  15  66 SW10      29.61S WCI  15
MINOT AFB      CLOUDY    19  11  71 SW14        N/A  WCI   6
$$

NDZ018>021-031>035-040>046-260300-
SOUTHWEST NORTH DAKOTA

CITY           SKY/WX    TMP DP  RH WIND       PRES   REMARKS
BISMARCK       PTCLDY    25  17  72 SW8       29.73R WCI  16
DICKINSON      PTCLDY    24  15  68 SW22      29.65R WCI   9
GARRISON         N/A     17  12  80 SW7       29.65R WCI   8
HETTINGER ARPT CLEAR     22  12  65 SW13      29.73S WCI  10
$$

NDZ004>008-012>016-024-026-027-054-260300-
NORTHEAST NORTH DAKOTA

CITY           SKY/WX    TMP DP  RH WIND       PRES   REMARKS
GRAND FORKS    FAIR      14  11  87 S10       29.74R WCI   1
GRND FRKS AFB  FAIR      17  12  81 SW7       29.73R WCI   8
DEVILS LAKE    FAIR      17  14  88 S7        29.68S WCI   8
$$

NDZ022-023-025-028>030-036>039-047>053-260300-
SOUTHEAST NORTH DAKOTA

CITY           SKY/WX    TMP DP  RH WIND       PRES   REMARKS
FARGO          FAIR      22  16  78 SW12      29.80R WCI  10
JAMESTOWN      CLEAR     20  14  77 S10       29.73S WCI   9
$$




USA.gov is the U.S. government's official web portal to all federal, state and local government web resources and services.